Weather History for Christmas Island, IS

Change the Weather History Date:

Friday, September 20, 2013

  Actual Average Record
Temperature  
Mean Temperature 76 °F -  
Max Temperature 79 °F 76 °F 80 °F (2012)
Min Temperature 72 °F 71 °F 69 °F (2003)
Cooling Degree Days 10    
Growing Degree Days 26 (Base 50)    
Moisture  
Dew Point 69 °F    
Average Humidity 80    
Maximum Humidity 88    
Minimum Humidity 73    
Precipitation  
Precipitation 0.00 in - - ()
Sea Level Pressure  
Sea Level Pressure 29.92 in    
Wind  
Wind Speed 11 mph ()    
Max Wind Speed 14 mph    
Max Gust Speed -    
Visibility 6.2 miles    
Events      
Averages and records for this station are not official NWS values.
T = Trace of Precipitation, MM = Missing Value Source: Averaged Metar Reports

Daily Weather History Graph

Daily Weather History Graph

Search for Another Location

Airport:

Trip Planner

Search our weather history database for the weather conditions in past years. The results will help you decide how hot, cold, wet, or windy it might be!

Date:

Astronomy

Sep. 20, 2013 Rise Set
Actual Time 5:48 AM CXT 5:53 PM CXT
Civil Twilight 5:27 AM CXT 6:14 PM CXT
Nautical Twilight 5:02 AM CXT 6:38 PM CXT
Astronomical Twilight 4:38 AM CXT 7:03 PM CXT
Moon 6:39 PM CXT (9/20) 6:05 AM CXT (9/20)
Length of Visible Light 12h 47m
Length of Day
12h 05m
Full, 99% of the Moon is Illuminated
Sep 20
Full
Sep 27
Last Quarter
Oct 5
New
Oct 12
First Quarter
Oct 19
Full

Hourly Weather History & Observations

Time (CXT) Temp. Dew Point Humidity Pressure Visibility Wind Dir Wind Speed Gust Speed Precip Events Conditions
12:00 AM 74 °F 68 °F 77% 29.91 in - ESE 11.5 mph - -   Overcast
12:00 AM 73.4 °F 68.0 °F 83% 29.95 in - ESE 11.5 mph - N/A   Overcast
1:00 AM 74 °F 68 °F 77% 29.89 in - ESE 12.7 mph - -  
1:00 AM 73.4 °F 68.0 °F 83% 29.92 in - ESE 12.7 mph - N/A   Mostly Cloudy
2:00 AM 73.4 °F 68.0 °F 83% 29.89 in - ESE 12.7 mph - N/A   Overcast
2:02 AM 73.4 °F 68.0 °F 83% 29.89 in - ESE 12.7 mph - N/A   Overcast
3:00 AM 73 °F 69 °F 84% 29.86 in - SE 10.4 mph - -  
3:00 AM 73.4 °F 69.8 °F 88% 29.89 in - SE 10.4 mph - N/A   Mostly Cloudy
3:49 AM 73.4 °F 68.0 °F 83% 29.89 in - SE 9.2 mph - N/A   Mostly Cloudy
4:00 AM 73 °F 68 °F 80% 29.86 in - SE 10.4 mph - -  
4:00 AM 73.4 °F 68.0 °F 83% 29.89 in - SE 10.4 mph - N/A   Mostly Cloudy
4:01 AM 73.4 °F 68.0 °F 83% 29.89 in - SE 10.4 mph - N/A   Mostly Cloudy
5:00 AM 73.4 °F 68.0 °F 83% 29.92 in - ESE 10.4 mph - N/A   Mostly Cloudy
6:00 AM 74 °F 68 °F 77% 29.89 in - ESE 10.4 mph - -   Overcast
6:00 AM 73.4 °F 68.0 °F 83% 29.92 in - ESE 10.4 mph - N/A   Overcast
7:00 AM 74 °F 69 °F 79% 29.91 in - SE 12.7 mph - -  
7:00 AM 75.2 °F 69.8 °F 83% 29.95 in - SE 12.7 mph - N/A   Overcast
8:00 AM 75.2 °F 68.0 °F 78% 29.98 in - ESE 12.7 mph - N/A   Overcast
9:00 AM 76 °F 69 °F 74% 29.94 in - SE 12.7 mph - -   Overcast
9:00 AM 77.0 °F 69.8 °F 78% 29.98 in 6.2 mi SE 12.7 mph - N/A   Overcast
10:00 AM 77 °F 70 °F 73% 29.94 in - ESE 13.8 mph - -  
10:00 AM 77.0 °F 69.8 °F 78% 29.98 in 6.2 mi ESE 13.8 mph - N/A   Overcast
11:00 AM 78.8 °F 71.6 °F 78% 29.98 in 6.2 mi ESE 13.8 mph - N/A   Overcast
12:00 PM 78 °F 71 °F 74% 29.92 in - ESE 13.8 mph - -   Overcast
12:00 PM 77.0 °F 71.6 °F 83% 29.95 in 6.2 mi ESE 13.8 mph - N/A   Mostly Cloudy
12:34 PM 78.8 °F 71.6 °F 78% 29.92 in 6.2 mi ESE 12.7 mph - N/A   Overcast
1:00 PM 78 °F 71 °F 75% 29.88 in - ESE 13.8 mph - -  
1:00 PM 78.8 °F 71.6 °F 78% 29.92 in 6.2 mi ESE 13.8 mph - N/A   Mostly Cloudy
1:16 PM 77.0 °F 71.6 °F 83% 29.92 in 6.2 mi ESE 13.8 mph - N/A   Mostly Cloudy
1:54 PM 77.0 °F 71.6 °F 83% 29.89 in 6.2 mi ESE 13.8 mph - N/A   Overcast
2:00 PM 77.0 °F 71.6 °F 83% 29.89 in 6.2 mi ESE 12.7 mph - N/A   Mostly Cloudy
3:00 PM 76 °F 70 °F 76% 29.86 in - ESE 12.7 mph - -   Overcast
3:00 PM 77.0 °F 69.8 °F 78% 29.89 in 6.2 mi ESE 12.7 mph - N/A   Overcast
4:00 PM 76 °F 70 °F 75% 29.86 in - ESE 12.7 mph - -  
4:00 PM 77.0 °F 69.8 °F 78% 29.89 in 6.2 mi ESE 12.7 mph - N/A   Mostly Cloudy
5:00 PM 75.2 °F 69.8 °F 83% 29.89 in 6.2 mi ESE 11.5 mph - N/A   Mostly Cloudy
6:00 PM 74 °F 69 °F 79% 29.89 in - East 11.5 mph - -  
6:00 PM 75.2 °F 69.8 °F 83% 29.92 in 6.2 mi East 11.5 mph - N/A   Scattered Clouds
7:00 PM 74 °F 69 °F 81% 29.90 in - ESE 12.7 mph - -  
7:00 PM 75.2 °F 69.8 °F 83% 29.92 in - ESE 12.7 mph - N/A   Overcast
7:28 PM 75.2 °F 69.8 °F 83% 29.95 in - ESE 11.5 mph - N/A   Mostly Cloudy
8:00 PM 75.2 °F 69.8 °F 83% 29.95 in - ESE 12.7 mph - N/A   Overcast
8:21 PM 73.4 °F 68.0 °F 83% 29.95 in - ESE 12.7 mph - N/A   Scattered Clouds
9:00 PM 74 °F 69 °F 78% 29.93 in - East 12.7 mph - -   Overcast
9:00 PM 73.4 °F 68.0 °F 83% 29.95 in - East 12.7 mph - N/A   Mostly Cloudy
10:00 PM 74 °F 68 °F 76% 29.94 in - East 12.7 mph - -  
10:00 PM 73.4 °F 68.0 °F 83% 29.98 in - East 12.7 mph - N/A   Overcast
11:00 PM 73.4 °F 68.0 °F 83% 29.98 in - ESE 11.5 mph - N/A   Mostly Cloudy